W8KVG Weather Reports


time (UTC)temp
C
wind
direction
speed
KPH
gust
KPH
rain 1hr
cm
rain 24hr
cm
rain mn
cm
humidity
%
barometer
mb
20260504030445 6 232 1.6 4.8 0.00 0.00 0.00 75 1012.6
20260504025941 6 37 0.0 3.2 0.00 0.00 0.00 72 1012.5
20260504025438 6 44 0.0 1.6 0.00 0.00 0.00 70 1012.5
20260504024935 6 44 0.0 3.2 0.00 0.00 0.00 72 1012.4
20260504024432 6 34 0.0 1.6 0.00 0.00 0.00 73 1012.6
20260504023929 6 150 0.0 1.6 0.00 0.00 0.00 74 1012.5
20260504023425 6 148 0.0 1.6 0.00 0.00 0.00 73 1013.0
20260504022921 6 49 0.0 3.2 0.00 0.00 0.00 73 1012.8
20260504022418 7 104 0.0 1.6 0.00 0.00 0.00 70 1013.0
20260504021915 7 74 0.0 1.6 0.00 0.00 0.00 68 1013.0
20260504021412 7 68 0.0 1.6 0.00 0.00 0.00 66 1012.7
20260504020909 7 89 0.0 1.6 0.00 0.00 0.00 64 1012.8
20260504020405 8 121 1.6 1.6 0.00 0.00 0.00 63 1012.7
20260504015902 7 119 0.0 1.6 0.00 0.00 0.00 63 1012.8
20260504015358 8 126 0.0 1.6 0.00 0.00 0.00 63 1012.7
20260504014854 8 141 0.0 1.6 0.00 0.00 0.00 64 1012.8
20260504014350 8 180 0.0 0.0 0.00 0.00 0.00 61 1013.0
20260504013848 8 129 0.0 1.6 0.00 0.00 0.00 61 1012.8
20260504013345 8 129 0.0 1.6 0.00 0.00 0.00 59 1012.7
20260504012842 8 129 0.0 1.6 0.00 0.00 0.00 58 1012.7
20260504012340 9 104 0.0 1.6 0.00 0.00 0.00 57 1012.6
20260504011837 9 76 0.0 0.0 0.00 0.00 0.00 57 1012.7
20260504011333 10 129 0.0 1.6 0.00 0.00 0.00 55 1012.5
20260504010829 10 334 0.0 3.2 0.00 0.00 0.00 56 1012.5
20260504010325 10 77 1.6 3.2 0.00 0.00 0.00 53 1012.7
20260504005822 10 48 0.0 3.2 0.00 0.00 0.00 53 1012.5
20260504005319 10 19 0.0 0.0 0.00 0.00 0.00 53 1012.6
20260504004816 10 114 0.0 3.2 0.00 0.00 0.00 52 1012.5
20260504004314 11 46 0.0 1.6 0.00 0.00 0.00 51 1012.5
20260504003810 11 113 0.0 1.6 0.00 0.00 0.00 49 1012.5
20260504003307 11 142 0.0 1.6 0.00 0.00 0.00 50 1012.5
20260504002803 12 124 0.0 3.2 0.00 0.00 0.00 48 1012.5
20260504002301 12 18 1.6 4.8 0.00 0.00 0.00 47 1012.5
20260504001758 12 318 0.0 4.8 0.00 0.00 0.00 46 1012.6
20260504001255 12 177 3.2 4.8 0.00 0.00 0.00 46 1012.7
20260504000752 12 169 3.2 4.8 0.00 0.00 0.00 46 1012.5
20260504000249 12 343 0.0 3.2 0.00 0.00 0.00 48 1012.6
20260503235747 12 0 0.0 3.2 0.00 0.00 0.00 45 1012.6
20260503235244 12 134 0.0 6.4 0.00 0.00 0.00 44 1012.6
20260503234741 12 147 3.2 6.4 0.00 0.00 0.00 45 1012.6
20260503234240 13 129 0.0 3.2 0.00 0.00 0.00 46 1012.5
20260503233736 13 131 0.0 6.4 0.00 0.00 0.00 44 1012.5
20260503233232 13 162 0.0 3.2 0.00 0.00 0.00 44 1012.4
20260503232729 13 171 3.2 8.0 0.00 0.00 0.00 42 1012.6
20260503232226 13 307 3.2 4.8 0.00 0.00 0.00 42 1012.6
20260503231725 13 198 1.6 8.0 0.00 0.00 0.00 42 1012.6
20260503231221 13 186 1.6 6.4 0.00 0.00 0.00 42 1012.6
20260503230716 13 192 3.2 9.7 0.00 0.00 0.00 41 1012.6
20260503230215 13 350 3.2 9.7 0.00 0.00 0.00 42 1012.7
20260503225712 14 15 1.6 16.1 0.00 0.00 0.00 41 1012.5
20260503225212 14 148 1.6 8.0 0.00 0.00 0.00 41 1012.6
20260503224709 13 259 1.6 6.4 0.00 0.00 0.00 42 1012.4
20260503224207 14 162 4.8 11.3 0.00 0.00 0.00 39 1012.6
20260503223704 14 87 1.6 3.2 0.00 0.00 0.00 41 1013.0
20260503223202 14 205 3.2 9.7 0.00 0.00 0.00 40 1012.7
20260503222658 14 100 3.2 14.5 0.00 0.00 0.00 39 1012.7
20260503222156 14 201 8.0 14.5 0.00 0.00 0.00 39 1012.8
20260503221654 15 5 4.8 6.4 0.00 0.00 0.00 42 1012.7
20260503221151 15 207 8.0 9.7 0.00 0.00 0.00 39 1012.7
20260503220648 14 185 3.2 6.4 0.00 0.00 0.00 39 1012.7
20260503220144 15 342 0.0 4.8 0.00 0.00 0.00 39 1012.7
20260503215642 15 216 3.2 14.5 0.00 0.00 0.00 38 1012.7
20260503215138 15 166 0.0 4.8 0.00 0.00 0.00 39 1012.7
20260503214637 16 350 4.8 9.7 0.00 0.00 0.00 37 1012.7
20260503214132 15 291 1.6 9.7 0.00 0.00 0.00 38 1012.7
20260503213632 15 189 6.4 11.3 0.00 0.00 0.00 35 1012.7
20260503213127 17 267 0.0 11.3 0.00 0.00 0.00 34 1012.3
20260503212626 18 7 3.2 9.7 0.00 0.00 0.00 35 1012.4
20260503212123 16 180 1.6 8.0 0.00 0.00 0.00 36 1012.5
20260503211621 15 193 1.6 4.8 0.00 0.00 0.00 39 1012.4
20260503211116 14 8 4.8 19.3 0.00 0.00 0.00 39 1012.5
20260503210612 16 189 8.0 9.7 0.00 0.00 0.00 36 1012.7
20260503210109 16 177 4.8 12.9 0.00 0.00 0.00 36 1012.7
20260503205604 15 264 1.6 9.7 0.00 0.00 0.00 37 1012.8
20260503205101 16 6 6.4 14.5 0.00 0.00 0.00 37 1012.8
20260503204558 15 193 8.0 11.3 0.00 0.00 0.00 39 1013.0
20260503204055 15 200 4.8 12.9 0.00 0.00 0.00 36 1013.0
20260503203552 16 194 3.2 8.0 0.00 0.00 0.00 41 1012.7
20260503203049 15 154 0.0 6.4 0.00 0.00 0.00 38 1013.1
20260503202547 16 190 4.8 9.7 0.00 0.00 0.00 37 1013.1
20260503202045 15 250 1.6 14.5 0.00 0.00 0.00 38 1013.2
20260503201543 15 22 3.2 17.7 0.00 0.00 0.00 39 1013.4
20260503201040 15 171 9.7 14.5 0.00 0.00 0.00 35 1013.1
20260503200536 16 167 4.8 8.0 0.00 0.00 0.00 36 1013.3
20260503200033 15 121 1.6 8.0 0.00 0.00 0.00 38 1013.4
20260503195530 16 242 0.0 9.7 0.00 0.00 0.00 37 1013.3
20260503195027 16 186 6.4 11.3 0.00 0.00 0.00 35 1013.6
20260503194524 15 205 4.8 16.1 0.00 0.00 0.00 37 1013.7
20260503194023 15 280 0.0 9.7 0.00 0.00 0.00 36 1013.8
20260503193520 15 293 4.8 17.7 0.00 0.00 0.00 35 1013.7
20260503193010 16 15 8.0 11.3 0.00 0.00 0.00 35 1013.9
20260503192507 15 333 6.4 12.9 0.00 0.00 0.00 38 1013.9
20260503192003 16 356 8.0 17.7 0.00 0.00 0.00 35 1013.9
20260503191500 16 352 6.4 12.9 0.00 0.00 0.00 38 1014.2
20260503190956 17 352 11.3 16.1 0.00 0.00 0.00 37 1014.0
20260503190454 17 348 4.8 20.9 0.00 0.00 0.00 34 1014.1
20260503185951 15 242 3.2 12.9 0.00 0.00 0.00 39 1014.0
20260503185447 16 349 6.4 12.9 0.00 0.00 0.00 36 1014.4
20260503184946 15 182 9.7 25.7 0.00 0.00 0.00 38 1014.5
20260503184443 15 189 4.8 11.3 0.00 0.00 0.00 40 1014.4
20260503183939 15 290 1.6 12.9 0.00 0.00 0.00 43 1014.4
20260503183436 14 354 3.2 11.3 0.00 0.00 0.00 40 1014.6
20260503182933 13 180 4.8 11.3 0.00 0.00 0.00 41 1014.6
20260503182432 15 204 1.6 12.9 0.00 0.00 0.00 42 1014.4
20260503181929 14 15 4.8 8.0 0.00 0.00 0.00 40 1014.6
20260503181426 13 317 3.2 9.7 0.00 0.00 0.00 40 1014.8
20260503180922 14 243 3.2 11.3 0.00 0.00 0.00 41 1014.7
20260503180421 13 1 8.0 22.5 0.00 0.00 0.00 41 1014.6
20260503175916 15 1 6.4 9.7 0.00 0.00 0.00 40 1014.9
20260503175414 14 187 4.8 20.9 0.00 0.00 0.00 39 1015.0
20260503174909 14 114 0.0 8.0 0.00 0.00 0.00 45 1015.1
20260503174408 13 184 4.8 11.3 0.00 0.00 0.00 42 1015.0
20260503173903 14 351 4.8 8.0 0.00 0.00 0.00 44 1015.2
20260503173400 13 189 0.0 9.7 0.00 0.00 0.00 42 1015.0
20260503172856 13 334 4.8 14.5 0.00 0.00 0.00 40 1015.2
20260503172354 13 7 6.4 14.5 0.00 0.00 0.00 44 1015.3
20260503171850 12 329 3.2 11.3 0.00 0.00 0.00 43 1015.3
20260503171347 12 9 4.8 14.5 0.00 0.00 0.00 42 1015.3
20260503170845 13 283 6.4 12.9 0.00 0.00 0.00 42 1015.5
20260503170341 13 171 8.0 14.5 0.00 0.00 0.00 40 1015.4
20260503150733 10 173 3.2 11.3 0.00 0.00 0.00 42 1016.4
20260503150229 9 219 4.8 14.5 0.00 0.00 0.00 46 1016.4
20260503140153 8 176 8.0 11.3 0.00 0.00 0.00 56 1016.8
20260503131123 6 161 0.0 9.7 0.00 0.00 0.00 72 1016.9
20260503130621 6 202 1.6 9.7 0.00 0.00 0.00 73 1016.9
20260503130118 6 103 3.2 8.0 0.00 0.00 0.00 74 1017.0
20260503110510 1 77 0.0 3.2 0.00 0.00 0.00 91 1015.9
20260503090356 1 113 0.0 3.2 0.00 0.00 0.00 91 1015.2
20260503081323 0 111 0.0 3.2 0.00 0.00 0.00 91 1015.2
20260503080819 0 130 0.0 3.2 0.00 0.00 0.00 90 1015.2
20260503080317 0 123 1.6 3.2 0.00 0.00 0.00 90 1015.1
20260503072748 1 62 0.0 1.6 0.00 0.00 0.00 88 1015.1
20260503072245 1 19 0.0 3.2 0.00 0.00 0.00 88 1015.0
20260503071741 1 113 0.0 3.2 0.00 0.00 0.00 88 1015.0
20260503071238 2 126 0.0 3.2 0.00 0.00 0.00 87 1015.1
20260503070734 2 78 0.0 3.2 0.00 0.00 0.00 87 1015.0
20260503070232 2 80 0.0 1.6 0.00 0.00 0.00 87 1015.1
20260503060151 1 89 0.0 3.2 0.00 0.00 0.00 93 1015.0
20260503054638 1 126 0.0 1.6 0.00 0.00 0.00 92 1015.4
20260503054136 1 126 0.0 1.6 0.00 0.00 0.00 92 1015.2
20260503053633 1 113 0.0 1.6 0.00 0.00 0.00 92 1015.3
20260503053132 1 124 0.0 1.6 0.00 0.00 0.00 92 1015.2
20260503052628 1 89 0.0 3.2 0.00 0.00 0.00 92 1015.4
20260503052124 1 113 0.0 1.6 0.00 0.00 0.00 92 1015.3
20260503051620 1 50 0.0 3.2 0.00 0.00 0.00 92 1015.5
20260503051118 1 55 0.0 3.2 0.00 0.00 0.00 92 1015.2
20260503050614 1 98 0.0 3.2 0.00 0.00 0.00 91 1015.3
20260503050111 1 160 0.0 3.2 0.00 0.00 0.00 91 1015.5
20260503045609 2 52 0.0 3.2 0.00 0.00 0.00 91 1015.6
20260503045105 2 56 0.0 3.2 0.00 0.00 0.00 91 1015.3
20260503044602 2 135 0.0 3.2 0.00 0.00 0.00 91 1015.4
20260503044100 1 124 0.0 1.6 0.00 0.00 0.00 91 1015.6
20260503043555 2 23 0.0 4.8 0.00 0.00 0.00 91 1015.5
20260503043053 2 146 3.2 4.8 0.00 0.00 0.00 92 1015.6
20260503042549 2 198 0.0 3.2 0.00 0.00 0.00 92 1015.8
20260503042046 1 120 0.0 3.2 0.00 0.00 0.00 93 1015.6
20260503041543 1 178 0.0 4.8 0.00 0.00 0.00 93 1015.6
20260503041040 1 124 0.0 4.8 0.00 0.00 0.00 93 1015.5
20260503040537 1 42 0.0 3.2 0.00 0.00 0.00 92 1015.6
20260503040034 1 29 0.0 1.6 0.00 0.00 0.00 92 1015.6
20260503035532 1 70 0.0 3.2 0.00 0.00 0.00 91 1015.6
20260503035029 1 45 0.0 3.2 0.00 0.00 0.00 91 1015.5
20260503034526 1 10 0.0 3.2 0.00 0.00 0.00 90 1015.8
20260503034023 1 85 0.0 3.2 0.00 0.00 0.00 90 1015.8
20260503033520 1 46 0.0 3.2 0.00 0.00 0.00 90 1015.5
20260503033018 1 53 3.2 4.8 0.00 0.00 0.00 91 1015.7
20260503032516 1 0 0.0 3.2 0.00 0.00 0.00 90 1015.6
20260503032014 1 19 1.6 3.2 0.00 0.00 0.00 89 1015.5
20260503031512 1 77 0.0 3.2 0.00 0.00 0.00 87 1015.6
20260503031008 2 49 0.0 3.2 0.00 0.00 0.00 86 1015.6